TimeCST,TemperatureF,Dew PointF,Humidity,Sea Level PressureIn,VisibilityMPH,Wind Direction,Wind SpeedMPH,Gust SpeedMPH,PrecipitationIn,Events,Conditions,WindDirDegrees,DateUTC
12:53 AM,39.0,25.0,57,30.10,10.0,WNW,3.5,-,N/A,,Clear,290,2012-11-07 06:53:00
1:53 AM,37.9,25.0,60,30.11,10.0,West,4.6,-,N/A,,Clear,270,2012-11-07 07:53:00
2:53 AM,37.0,26.1,65,30.11,10.0,West,5.8,-,N/A,,Clear,270,2012-11-07 08:53:00
3:53 AM,37.0,26.1,65,30.12,10.0,West,6.9,-,N/A,,Clear,280,2012-11-07 09:53:00
4:53 AM,36.0,25.0,64,30.15,10.0,West,10.4,-,N/A,,Clear,270,2012-11-07 10:53:00
5:53 AM,36.0,25.0,64,30.17,10.0,West,8.1,-,N/A,,Clear,270,2012-11-07 11:53:00
6:53 AM,35.1,25.0,67,30.18,10.0,West,5.8,-,N/A,,Clear,280,2012-11-07 12:53:00
7:53 AM,37.0,26.1,65,30.21,10.0,West,5.8,-,N/A,,Clear,270,2012-11-07 13:53:00
8:53 AM,43.0,28.9,58,30.22,10.0,NNW,5.8,-,N/A,,Clear,330,2012-11-07 14:53:00
9:53 AM,46.9,30.0,52,30.22,10.0,WSW,6.9,-,N/A,,Clear,240,2012-11-07 15:53:00
10:53 AM,52.0,30.9,45,30.22,10.0,NNE,8.1,-,N/A,,Clear,20,2012-11-07 16:53:00
11:53 AM,55.0,30.0,38,30.18,10.0,NNE,6.9,-,N/A,,Clear,20,2012-11-07 17:53:00
12:53 PM,55.9,28.9,36,30.15,10.0,Calm,Calm,-,N/A,,Clear,0,2012-11-07 18:53:00
1:53 PM,57.9,28.9,33,30.12,10.0,North,6.9,-,N/A,,Clear,10,2012-11-07 19:53:00
2:53 PM,57.9,28.0,32,30.10,10.0,Calm,Calm,-,N/A,,Clear,0,2012-11-07 20:53:00
3:53 PM,57.9,28.0,32,30.10,10.0,SSE,3.5,-,N/A,,Clear,150,2012-11-07 21:53:00
4:53 PM,54.0,28.9,38,30.10,10.0,East,4.6,-,N/A,,Clear,100,2012-11-07 22:53:00
5:53 PM,48.9,27.0,43,30.09,10.0,ESE,4.6,-,N/A,,Clear,110,2012-11-07 23:53:00
6:53 PM,44.1,27.0,51,30.11,10.0,ENE,3.5,-,N/A,,Clear,70,2012-11-08 00:53:00
7:53 PM,42.1,27.0,55,30.11,10.0,Calm,Calm,-,N/A,,Clear,0,2012-11-08 01:53:00
8:53 PM,42.1,28.0,58,30.11,10.0,Calm,Calm,-,N/A,,Clear,0,2012-11-08 02:53:00
9:53 PM,42.1,28.0,58,30.11,10.0,East,3.5,-,N/A,,Clear,90,2012-11-08 03:53:00
10:53 PM,41.0,30.0,65,30.11,10.0,East,4.6,-,N/A,,Clear,80,2012-11-08 04:53:00
11:53 PM,39.9,28.0,63,30.10,10.0,East,4.6,-,N/A,,Clear,80,2012-11-08 05:53:00